Header for Extended Forecast Station List Page

Search by: ID | Name | Date | Parm | Value | Avg | % Avg
Sort by: ID | Name | Date | Parm | Value | Avg | % Avg

Enter search or view all records.

Click on id for station plot
#IDNameDateParmValueAvg% Avg
0LYDM8KOOTENAI-LIBBY DAM09-13-2021INFLOW (KAF)905108384
1LEOI1KOOTENAI-AT LEONIA09-13-2021DISCHARGE (KAF)27431758156
2BFEI1KOOTENAI-AT BONNERS FERRY09-13-2021STAGE (FT)MMM
3FCFM8NF FLATHEAD-NEAR COLUMBIA FALLS09-13-2021DISCHARGE (KAF)21121698
4WGCM8MF FLATHEAD-NEAR WEST GLACIER09-13-2021DISCHARGE (KAF)200184109
5HHWM8SF FLATHEAD-HUNGRY HORSE DAM09-13-2021INFLOW (KAF)18724078
6CFMM8FLATHEAD-AT COLUMBIA FALLS09-13-2021DISCHARGE (KAF)968122179
7DLGM8CLARK FORK-AT DEER LODGE09-13-2021DISCHARGE (KAF)466275
8DRMM8CLARK FORK-NR DRUMMOND09-13-2021DISCHARGE (KAF)120MM
9RCCM8ROCK CREEK-NEAR CLINTON09-13-2021DISCHARGE (KAF)475586
10BONM8BLACKFOOT-NEAR BONNER09-13-2021DISCHARGE (KAF)11514579
11ABOM8CLARK FORK-ABOVE MISSOULA09-13-2021DISCHARGE (KAF)29536381
12BITM8BITTERROOT-NEAR MISSOULA09-13-2021DISCHARGE (KAF)16723471
13BELM8CLARK FORK-BELOW MISSOULA09-13-2021DISCHARGE (KAF)46460677
14STRM8ST. REGIS-NEAR ST. REGIS09-13-2021DISCHARGE (KAF)193357
15SRGM8CLARK FORK-AT ST REGIS09-13-2021DISCHARGE (KAF)57978074
16KERM8FLATHEAD-SELI’Š KSANKA QLISPE’ DAM09-13-2021INFLOW (KAF)1071148572
17NOXM8CLARK FORK-NOXON RAPIDS DAM09-13-2021INFLOW (KAF)2195327967
18CABI1CLARK FORK-CABINET GORGE DAM09-13-2021INFLOW (KAF)2407341371
19PRTI1PRIEST-NEAR PRIEST RIVER09-13-2021DISCHARGE (KAF)20021394
20ALFW1PEND OREILLE-ALBENI FALLS DAM09-13-2021INFLOW (KAF)2634390567
21HOPI1PEND OREILLE-PEND OREILLE LAKE NR HOPE09-13-2021LAKE ELEVATION (FT)MMM
22COEI1COEUR D ALENE-COEUR D ALENE LAKE09-13-2021INFLOW (KAF)28143165
23SPOW1SPOKANE-AT SPOKANE09-13-2021DISCHARGE (KAF)381MM
24LLKW1SPOKANE-AT LONGLAKE09-13-2021INFLOW (KAF)54587962
25SATI1ST MARIES-NEAR SANTA09-13-2021DISCHARGE (KAF)162372
26SJMI1ST JOE-AT ST MARIES09-13-2021STAGE (FT)MMM
27CIBW1COLUMBIA-AT INTL BOUNDARY09-13-2021DISCHARGE (KAF)15784MM
28LAUW1KETTLE-AT LAURIER09-13-2021DISCHARGE (KAF)9012770
29GCDW1COLUMBIA-GRAND COULEE DAM09-13-2021INFLOW (KAF)164481731795
30CHJW1COLUMBIA-CHIEF JOSEPH DAM09-13-2021INFLOW (KAF)178781968691
31TONW1OKANOGAN-NEAR TONASKET09-13-2021DISCHARGE (KAF)22127680
32PATW1METHOW-NEAR PATEROS09-13-2021DISCHARGE (KAF)8710286
33WELW1COLUMBIA-WELLS DAM09-13-2021INFLOW (KAF)181761999591
34CHDW1CHELAN-LAKE CHELAN DAM09-13-2021INFLOW (KAF)173158109
35RRHW1COLUMBIA-ROCKY REACH DAM09-13-2021INFLOW (KAF)185552049491
36ARDW1ENTIAT-NEAR ARDENVOIR09-13-2021DISCHARGE (KAF)212293
37PESW1WENATCHEE-AT PESHASTIN09-13-2021DISCHARGE (KAF)23626589
38WANW1COLUMBIA-WANAPUM DAM09-13-2021INFLOW (KAF)187871888999
39PRWW1COLUMBIA-PRIEST RAPIDS DAM09-13-2021INFLOW (KAF)187811917198
40KEDW1YAKIMA-KEECHELUS LAKE09-13-2021INFLOW (KAF)4844109
41KADW1KACHESS-KACHESS DAM09-13-2021INFLOW (KAF)3935113
42EASW1YAKIMA-AT EASTON09-13-2021DISCHARGE (KAF)495885
43CLUW1CLE ELUM-CLE ELUM LAKE09-13-2021INFLOW (KAF)11588130
44TNAW1TEANAWAY-BELOW FORKS09-13-2021DISCHARGE (KAF)172569
45UMTW1YAKIMA-AT UMTANUM09-13-2021DISCHARGE (KAF)22028378
46BUDW1BUMPING-BUMPING LAKE DAM09-13-2021INFLOW (KAF)272990
47CLFW1NACHES-NEAR CLIFFDEL09-13-2021DISCHARGE (KAF)889098
48RILW1TIETON-RIMROCK LAKE NEAR RIMROCK09-13-2021INFLOW (KAF)486179
49NACW1NACHES-NEAR NACHES09-13-2021DISCHARGE (KAF)11078141
50PARW1YAKIMA-NEAR PARKER09-13-2021DISCHARGE (KAF)29032489
51KIOW1YAKIMA-AT KIONA09-13-2021DISCHARGE (KAF)57358698
52IPDI1HENRYS FORK-ISLAND PARK DAM09-13-2021INFLOW (KAF)9912579
53CHEI1FALL RIVER-NEAR CHESTER09-13-2021DISCHARGE (KAF)10210696
54ANTI1HENRYS FORK-AT ST. ANTHONY09-13-2021DISCHARGE (KAF)31033493
55TEAI1TETON-NEAR ST. ANTHONY09-13-2021DISCHARGE (KAF)10012381
56REXI1HENRYS FORK-AT REXBURG09-13-2021DISCHARGE (KAF)37242388
57JLKW4SNAKE-JACKSON LAKE AT DAM09-13-2021INFLOW (KAF)9811386
58JKSW4SNAKE-NEAR JACKSON09-13-2021DISCHARGE (KAF)428404106
59ALPW4SNAKE-NEAR ALPINE09-13-2021DISCHARGE (KAF)49750099
60PLDI1SF SNAKE-PALISADES DAM09-13-2021INFLOW (KAF)70476991
61HEII1SNAKE-NEAR HEISE09-13-2021DISCHARGE (KAF)58782371
62RIDI1WILLOW CREEK-RIRIE DAM09-13-2021INFLOW (KAF)5863
63SIFI1SNAKE-AB EAGLE ROCK NR IDAHO FALLS09-13-2021DISCHARGE (KAF)61088169
64SHYI1SNAKE-NEAR SHELLEY09-13-2021DISCHARGE (KAF)58680673
65SNAI1SNAKE-AT BLACKFOOT09-13-2021DISCHARGE (KAF)40265961
66BFTI1SNAKE-NEAR BLACKFOOT09-13-2021DISCHARGE (KAF)41470659
67PIHI1PORTNEUF-AT POCATELLO09-13-2021DISCHARGE (KAF)355167
68AFRI1SNAKE-AMERICAN FALLS RESERVOIR09-13-2021INFLOW (KAF)1065139077
69MILI1SNAKE-AT MILNER09-13-2021DISCHARGE (KAF)M367M
70HOTI1BRUNEAU-NEAR HOT SPRINGS09-13-2021DISCHARGE (KAF)212489
71SWAI1SNAKE-BELOW SWAN FALLS09-13-2021DISCHARGE (KAF)1774242773
72HWRI1BIG LOST-AT HOWELL RANCH NEAR CHILLY09-13-2021DISCHARGE (KAF)142557
73MACI1BIG LOST-MACKAY RESERVOIR NEAR MACKAY09-13-2021INFLOW (KAF)2510252
74HALI1BIG WOOD-AT HAILEY09-13-2021DISCHARGE (KAF)254458
75MAGI1BIG WOOD-MAGIC DAM09-13-2021INFLOW (KAF)72725
76LWRI1LITTLE WOOD-LITTLE WOOD DAM09-13-2021INFLOW (KAF)91560
77OWYO3OWYHEE-OWYHEE DAM09-13-2021INFLOW (KAF)456470
78ARAI1SF BOISE-ANDERSON RANCH DAM09-13-2021INFLOW (KAF)627088
79LUCI1BOISE-LUCKY PEAK DAM09-13-2021INFLOW (KAF)72MM
80BIGI1BOISE-AT GLENWOOD BRIDGE09-13-2021DISCHARGE (KAF)375863
81PARI1BOISE-NEAR PARMA09-13-2021DISCHARGE (KAF)16822376
82WRMO3MALHEUR-WARM SPRINGS DAM09-13-2021INFLOW (KAF)91182
83BERO3MALHEUR-AGENCY VALLEY DAM09-13-2021INFLOW (KAF)101285
84BULO3BULLY CREEK-BULLY CREEK DAM09-13-2021INFLOW (KAF)M1M
85CSDI1NF PAYETTE-CASCADE DAM09-13-2021INFLOW (KAF)798890
86DEDI1DEADWOOD-NEAR LOWMAN09-13-2021INFLOW (KAF)141877
87EMMI1PAYETTE-NEAR EMMETT09-13-2021DISCHARGE (KAF)21835761
88WSRI1WEISER-NEAR WEISER09-13-2021DISCHARGE (KAF)355366
89WEII1SNAKE-AT WEISER09-13-2021DISCHARGE (KAF)2528347573
90BRNI1SNAKE-BROWNLEE DAM09-13-2021INFLOW (KAF)2693354076
91WHBI1SALMON-AT WHITEBIRD09-13-2021DISCHARGE (KAF)751111068
92TRYO3GRANDE RONDE-TROY09-13-2021DISCHARGE (KAF)16223669
93ANAW1SNAKE-NEAR ANATONE09-13-2021DISCHARGE (KAF)3152524160
94ORFI1CLEARWATER-AT OROFINO09-13-2021DISCHARGE (KAF)44655381
95DWRI1NF CLEARWATER-DWORSHAK DAM09-13-2021INFLOW (KAF)29641571
96SPDI1CLEARWATER-AT SPALDING09-13-2021DISCHARGE (KAF)954132772
97LGDW1SNAKE-LOWER GRANITE DAM09-13-2021INFLOW (KAF)4102673161
98LGSW1SNAKE-LITTLE GOOSE DAM09-13-2021INFLOW (KAF)4102677061
99LMNW1SNAKE-LOWER MONUMENTAL DAM09-13-2021INFLOW (KAF)4127678761
100IHDW1SNAKE-ICE HARBOR DAM09-13-2021INFLOW (KAF)4127672061
101TCHW1WALLA WALLA-NEAR TOUCHET09-13-2021DISCHARGE (KAF)496083
102MCDW1COLUMBIA-MCNARY DAM09-13-2021INFLOW (KAF)234572735186
103GIBO3UMATILLA-NEAR GIBBON09-13-2021DISCHARGE (KAF)202293
104PDTO3UMATILLA-AT PENDLETON09-13-2021DISCHARGE (KAF)4342103
105MYKO3MCKAY CREEK-NEAR PILOT ROCK09-13-2021DISCHARGE (KAF)88101
106UMAO3UMATILLA-NEAR UMATILLA09-13-2021DISCHARGE (KAF)8441204
107MONO3NF JOHN DAY-AT MONUMENT09-13-2021DISCHARGE (KAF)505984
108SERO3JOHN DAY-AT SERVICE CK09-13-2021DISCHARGE (KAF)9511682
109JDAO3COLUMBIA-JOHN DAY DAM09-13-2021INFLOW (KAF)242582799787
110MODO3DESCHUTES-AT MOODY NR BIGGS09-13-2021DISCHARGE (KAF)1217124498
111TDAO3COLUMBIA-THE DALLES DAM09-13-2021INFLOW (KAF)249783042282
112PITW1KLICKITAT-NEAR PITT09-13-2021DISCHARGE (KAF)20721696
113HODO3HOOD-NEAR TUCKER BRIDGE09-13-2021DISCHARGE (KAF)16016597
114UNDW1WHITE SALMON-NEAR UNDERWOOD09-13-2021DISCHARGE (KAF)14718778
115BONO3COLUMBIA-BONNEVILLE DAM09-13-2021INFLOW (KAF)254863196980